Regional Weather Roundup
Issued by NWS

Home | Current Version | Previous Version | Graphics & Text | Print | Product List | Glossary On
Versions: 1 2 3 4 5 6 7 8 9 10 11 12 13 14 15 16 17 18 19 20 21 22 23 24 25 26 27 28 29 30 31 32 33 34 35 36 37 38 39 40 41 42 43 44 45 46 47 48 49 50
000
ASUS45 KTFX 170210
RWRMT
MONTANA REGIONAL WEATHER ROUNDUP
NATIONAL WEATHER SERVICE GREAT FALLS MT
700 PM MST TUE JAN 16 2018

NOTE: "FAIR" INDICATES FEW OR NO CLOUDS BELOW 12000 FEET WITH NO
SIGNIFICANT WEATHER AND/OR OBSTRUCTIONS TO VISIBILITY.

MTZ001>007-043-170300-
WEST OF THE DIVIDE

CITY           SKY/WX    TMP DP  RH WIND       PRES   REMARKS
KALISPELL      CLOUDY    27  25  92 CALM      30.30F
MISSOULA       MOCLDY    33  26  75 N3        30.31R
BUTTE          CLOUDY    24  17  74 S6        30.25S WCI  17
MULLAN PASS    CLOUDY    28  28 100 SW8       30.24R WCI  20
ANACONDA         N/A     25  19  80 S5        30.26S
DEER LODGE       N/A     21  18  86 CALM      30.29R
EUREKA           N/A     34  27  75 MISG      30.26F
HAMILTON         N/A     34  27  75 CALM      30.30R
PLAINS           N/A     32  22  67 CALM      30.30R
RONAN            N/A     28  27  93 SW5       30.33S
THOMPSON FALLS   N/A     34  30  85 E1        30.34
$$

MTZ008-052>055-170300-
SOUTHWEST MONTANA

CITY           SKY/WX    TMP DP  RH WIND       PRES   REMARKS
BOZEMAN        FAIR      18  13  80 SE3       30.26S
DILLON         CLOUDY    31  21  66 E3        30.23S
ENNIS          CLOUDY    28  19  69 SE7       30.28F WCI  21
W YELLOWSTONE  FAIR       7   5  92 CALM      30.31R
THREE FORKS      N/A     21  16  81 CALM      30.22S
TWIN BRIDGES     N/A     29  17  60 CALM      30.21
$$

MTZ009-010-012-014-046-048-049-054-170300-
EAST SLOPES AND CENTRAL MONTANA

CITY           SKY/WX    TMP DP  RH WIND       PRES   REMARKS
CUT BANK       FAIR      38  27  64 W26G32    30.05R WCI  26
GREAT FALLS    FAIR      39  26  59 SW20      30.10R WCI  29
MALMSTROM AFB  FAIR      39  29  67 SW20      30.10R WCI  29
HELENA         FAIR      19  16  88 CALM      30.26S
AUGUSTA        MOCLDY    40  29  64 W15       30.11R
BOWMANS CRNR   FAIR      31  22  71 S13       30.12R WCI  21
CHOTEAU          N/A     41  28  60 SW16      30.09S
FAIRFIELD      FAIR      42  28  58 SW20      30.09R
POWER          FAIR      33  25  73 SW14      30.08S WCI  23
RAYNESFORD     FAIR      45  27  48 W9        30.12R
ULM            MOCLDY    43  27  53 S18G28    30.12S
WHITE SULPHUR    N/A      7   3  85 CALM      30.21
$$

MTZ011-013-016-021-045-047-050-051-170300-
NORTH CENTRAL MONTANA

CITY           SKY/WX    TMP DP  RH WIND       PRES   REMARKS
HAVRE          FAIR       1  -5  75 SW14      30.10F WCI -17
LEWISTOWN      FAIR      30  18  60 S9        30.10R WCI  22
N BAR RANCH    FAIR      36  10  35 NW6       30.09S WCI  31
CHINOOK          N/A     -8 -15  71 CALM      30.14S
DENTON         FAIR      29  18  64 MISG      30.06R
GEYSER         FAIR      40  27  57 W20       30.07S
GRASS RANGE    FAIR      42  19  40 SW15      30.04R
STANFORD       FAIR      35  24  64 CALM      30.08S
WINIFRED       FAIR      32  15  49 W9        30.07S WCI  24
$$

MTZ017>020-022>027-061-062-170300-
NORTHEAST MONTANA

CITY           SKY/WX    TMP DP  RH WIND       PRES   REMARKS
GLASGOW        FAIR       5  -2  72 SE9       30.12R WCI  -9
GLENDIVE       FAIR       2  -6  69 S7        30.17F WCI -11
JORDAN           N/A      9   2  73 W7        30.10R WCI  -2
MALTA          CLEAR    -13 -18  77 W7        30.15S WCI -29
SIDNEY         FAIR       2  -6  69 SW9       30.20F WCI -13
WOLF POINT     FAIR      -2  -8  76 NW6       30.15F WCI -14
PLENTYWOOD       N/A      3  -4  72 CALM      30.10F
POPLAR           N/A      7  -4  61 CALM      30.15F
SCOBEY           N/A      4  -6  63 S6        30.05  WCI  -7
$$

MTZ028>42-056>058-170300-
SOUTHCENTRAL AND SOUTHEAST MONTANA

CITY           SKY/WX    TMP DP  RH WIND       PRES   REMARKS
BAKER          FAIR       5  -3  69 SE7       30.18S WCI  -7
BILLINGS       FAIR      28  10  46 SW15      30.14R WCI  16
LIVINGSTON     FAIR      28  15  58 NW17      30.20S WCI  16
MILES CITY     FAIR       1  -5  75 S10       30.15F WCI -15
BIG TIMBER     CLEAR     36  14  41 SW28G35   30.15F WCI  23
EKALAKA          N/A     25   3  38 E10       30.10F WCI  15
FORSYTH          N/A     -2  -6  84 CALM      30.16S
HARLOWTON      FAIR      31  19  62 W25G31    30.11R WCI  17
LAUREL           N/A     30   9  40 SW20G26   30.15  WCI  18
$$

REGIONAL REPORTS...DAKOTAS

CITY           SKY/WX    TMP DP  RH WIND       PRES   REMARKS
WILLISTON      FAIR       4  -5  66 S3        30.18F
MINOT          FAIR      14  -1  51 S12       30.19F WCI   0
DICKINSON      FAIR      10  -3  55 S17       30.16F WCI  -8
BEACH          FAIR       9  -2  61 S12       30.20S WCI  -6
CROSBY         FAIR      10  -2  56 S22G28    30.10F WCI  -9
TIOGA          FAIR       7  -4  61 SW5       30.16F
WATFORD CITY   FAIR       7  -4  61 SW3       30.18F
BISMARCK       FAIR       4  -6  63 SE6       30.34F WCI  -7
GRAND FORKS    FAIR       5  -2  72 S17       30.37F WCI -14
FARGO          FAIR       5  -3  69 S15       30.46F WCI -13
BUFFALO SD       N/A      5  -3  69 S15       30.12F WCI -13
RAPID CITY     FAIR      18   6  59 SE8       30.22F WCI   8
$$

REGIONAL REPORTS...WYOMING/IDAHO/WASHINGTON

CITY           SKY/WX    TMP DP  RH WIND       PRES   REMARKS
GILLETTE         N/A     21  11  65 S16       30.17S WCI   7
SHERIDAN       FAIR       8   1  73 S6        30.13F WCI  -2
BUFFALO WY     FAIR      28  15  58 SW3       30.12F
CODY           FAIR      17  12  80 CALM      30.16F
YELLOWSTONE LA   N/A      3   0  87 W3        30.32R
IDAHO FALLS    CLOUDY    32  26  78 N6        30.33R WCI  26
SALMON         CLOUDY    28  24  85 E3        30.37S
BOISE          CLOUDY    41  36  82 NW3       30.35F
SPOKANE        CLOUDY    36  35  96 CALM      30.30S FOG
$$

REGIONAL REPORTS...ALBERTA

CITY           SKY/WX    TMP DP  RH WIND       PRES   REMARKS
CALGARY        PTCLDY    48  25  40 W18G25    29.81S
CARDSTON         N/A     41  25  52 MISG        N/A
FORT MCMURRAY  CLEAR     10   5  79 E3        29.74F
HIGH LEVEL     CLEAR     10   9  92 S7        29.69F WCI   0
LETHBRIDGE     PTCLDY    37  28  70 SW17G24   29.99R WCI  28
LLOYDMINSTER   PTCLDY    10   7  85 SW7       29.78F WCI   0
MEDICINE HAT   CLEAR     27  21  80 SW22      29.93F WCI  12
PEACE RIVER    PTCLDY     7   3  85 SW6       29.77F WCI  -3
PINCHER CREEK  MOCLDY    39  27  60 W35G41    29.99F WCI  27
WATERTON GATE    N/A     39  23  52 SW22G39     N/A  WCI  29
$$

REGIONAL REPORTS...SASKATCHEWAN

CITY           SKY/WX    TMP DP  RH WIND       PRES   REMARKS
CORONACH         N/A      5   0  78 S7          N/A  WCI  -7
CYPRESS HILLS    N/A     28  18  64 SW6         N/A  WCI  22
ESTEVAN        CLEAR     14  -2  48 S14G20    30.10F WCI  -1
MOOSE JAW        N/A     23   5  46 SW18G24     N/A  WCI   9
PRINCE ALBERT  CLEAR      3  -2  78 VRB2      29.88F
REGINA         CLEAR      5   0  78 SE13      30.00F WCI -12
ROCKGLEN         N/A     14   3  62 SW22        N/A  WCI  -4
SASKATOON      CLEAR     14   7  73 S9        29.89F WCI   2
SWIFT CURRENT  CLEAR     21  10  63 SW22      29.91F WCI   5
VAL MARIE        N/A     -9 -15  77 NW1         N/A
$$



USA.gov is the U.S. government's official web portal to all federal, state and local government web resources and services.